Multibeam Report for FA150002


Ship Name: Fugro Americas
Chief Scientist:
Source Organization: Fugro
Start Date: 2015-06-26
End Date: 2015-07-02


View ISO Metadata

Visit the full NCEI Bathymetry Viewer


Multibeam Bathymetry

Cruise Details

Project: Calibrations
Instrument: Kongsberg EM302

Data Quality

Number of Files: 92
Number of Records: 159351
BATHYMETRY DATA Quantity Percentage
Number of Beams 68786496 100%
Number of Good Beams 64138025 93.24%
Number of Zero Beams 7 0.0%
Number of Flagged Beams 4648464 6.76%

Navigation Totals

Total Time: 37.9622 hours
Total Track Length: 564.3489 km
Average Speed: 14.866 km/hr (8.0270 knots)

Cruise Bounds

Northern Extent: 29.124651
Southern Extent: 26.135166
Western Extent: -90.42337
Eastern Extent: -89.93208

Limits

Minimum Sonar Depth 3.377 Maximum Sonar Depth 4.5923
Minimum Altitude 0 Maximum Altitude 4374.3833
Minimum Depth 10.1057 Maximum Depth 4529.3237

File Information

Full Resolution Bathymetry as collected (raw): 91

Files File Size Description
0000_20150626_163911_Fugro_Americas.all.mb58.gz 42.82MB Kongsberg multibeam vendor format
0000_20150629_083443_Fugro_Americas.all.mb58.gz 34.11MB Kongsberg multibeam vendor format
0000_20150629_181404_Fugro_Americas.all.mb58.gz 40.38MB Kongsberg multibeam vendor format
0000_20150630_142509_Fugro_Americas.all.mb58.gz 42.70MB Kongsberg multibeam vendor format
0000_20150630_221326_Fugro_Americas.all.mb58.gz 77.31MB Kongsberg multibeam vendor format
0000_20150701_023834_Fugro_Americas.all.mb58.gz 114.09MB Kongsberg multibeam vendor format
0001_20150626_164128_Fugro_Americas.all.mb58.gz 1.41MB Kongsberg multibeam vendor format
0001_20150629_090443_Fugro_Americas.all.mb58.gz 33.93MB Kongsberg multibeam vendor format
0001_20150629_184403_Fugro_Americas.all.mb58.gz 2.90MB Kongsberg multibeam vendor format
0001_20150630_145506_Fugro_Americas.all.mb58.gz 44.44MB Kongsberg multibeam vendor format
0001_20150630_225618_Fugro_Americas.all.mb58.gz 60.10MB Kongsberg multibeam vendor format
0002_20150626_164236_Fugro_Americas.all.mb58.gz 1.07MB Kongsberg multibeam vendor format
0002_20150629_093440_Fugro_Americas.all.mb58.gz 33.88MB Kongsberg multibeam vendor format
0002_20150630_152504_Fugro_Americas.all.mb58.gz 44.70MB Kongsberg multibeam vendor format
0002_20150630_233233_Fugro_Americas.all.mb58.gz 70.52MB Kongsberg multibeam vendor format
0003_20150627_203848_Fugro_Americas.all.mb58.gz 531.49MB Kongsberg multibeam vendor format
0003_20150629_100443_Fugro_Americas.all.mb58.gz 34.13MB Kongsberg multibeam vendor format
0003_20150629_191615_Fugro_Americas.all.mb58.gz 40.60MB Kongsberg multibeam vendor format
0003_20150630_155504_Fugro_Americas.all.mb58.gz 45.25MB Kongsberg multibeam vendor format
0003_20150702_001938_Fugro_Americas.all.mb58.gz 0.97MB Kongsberg multibeam vendor format
0004_20150627_212018_Fugro_Americas.all.mb58.gz 323.64MB Kongsberg multibeam vendor format
0004_20150629_103442_Fugro_Americas.all.mb58.gz 34.37MB Kongsberg multibeam vendor format
0004_20150629_194609_Fugro_Americas.all.mb58.gz 8.87MB Kongsberg multibeam vendor format
0004_20150630_162505_Fugro_Americas.all.mb58.gz 45.43MB Kongsberg multibeam vendor format
0005_20150627_215018_Fugro_Americas.all.mb58.gz 230.50MB Kongsberg multibeam vendor format
0005_20150629_110445_Fugro_Americas.all.mb58.gz 34.27MB Kongsberg multibeam vendor format
0005_20150629_195239_Fugro_Americas.all.mb58.gz 40.74MB Kongsberg multibeam vendor format
0005_20150630_165503_Fugro_Americas.all.mb58.gz 46.31MB Kongsberg multibeam vendor format
0006_20150627_222018_Fugro_Americas.all.mb58.gz 46.85MB Kongsberg multibeam vendor format
0006_20150629_113443_Fugro_Americas.all.mb58.gz 34.68MB Kongsberg multibeam vendor format
0006_20150629_202238_Fugro_Americas.all.mb58.gz 15.80MB Kongsberg multibeam vendor format
0006_20150630_172507_Fugro_Americas.all.mb58.gz 46.74MB Kongsberg multibeam vendor format
0007_20150627_222848_Fugro_Americas.all.mb58.gz 97.00MB Kongsberg multibeam vendor format
0007_20150629_120444_Fugro_Americas.all.mb58.gz 36.74MB Kongsberg multibeam vendor format
0007_20150629_203416_Fugro_Americas.all.mb58.gz 40.64MB Kongsberg multibeam vendor format
0007_20150630_175504_Fugro_Americas.all.mb58.gz 47.98MB Kongsberg multibeam vendor format
0008_20150627_224719_Fugro_Americas.all.mb58.gz 3.24MB Kongsberg multibeam vendor format
0008_20150629_123440_Fugro_Americas.all.mb58.gz 32.28MB Kongsberg multibeam vendor format
0008_20150629_210413_Fugro_Americas.all.mb58.gz 13.22MB Kongsberg multibeam vendor format
0008_20150630_182505_Fugro_Americas.all.mb58.gz 68.21MB Kongsberg multibeam vendor format
0009_20150627_224919_Fugro_Americas.all.mb58.gz 206.32MB Kongsberg multibeam vendor format
0009_20150629_052020_Fugro_Americas.all.mb58.gz 33.65MB Kongsberg multibeam vendor format
0009_20150629_125756_Fugro_Americas.all.mb58.gz 19.23MB Kongsberg multibeam vendor format
0009_20150630_185503_Fugro_Americas.all.mb58.gz 69.79MB Kongsberg multibeam vendor format
0010_20150627_231919_Fugro_Americas.all.mb58.gz 248.47MB Kongsberg multibeam vendor format
0010_20150629_055018_Fugro_Americas.all.mb58.gz 13.37MB Kongsberg multibeam vendor format
0010_20150629_131423_Fugro_Americas.all.mb58.gz 32.07MB Kongsberg multibeam vendor format
0010_20150630_192503_Fugro_Americas.all.mb58.gz 73.05MB Kongsberg multibeam vendor format
0011_20150627_234920_Fugro_Americas.all.mb58.gz 243.50MB Kongsberg multibeam vendor format
0011_20150630_195503_Fugro_Americas.all.mb58.gz 83.66MB Kongsberg multibeam vendor format
0012_20150628_001920_Fugro_Americas.all.mb58.gz 194.99MB Kongsberg multibeam vendor format
0012_20150629_062932_Fugro_Americas.all.mb58.gz 33.74MB Kongsberg multibeam vendor format
0012_20150630_202504_Fugro_Americas.all.mb58.gz 58.55MB Kongsberg multibeam vendor format
0013_20150628_010739_Fugro_Americas.all.mb58.gz 200.71MB Kongsberg multibeam vendor format
0013_20150629_065932_Fugro_Americas.all.mb58.gz 11.95MB Kongsberg multibeam vendor format
0014_20150628_013739_Fugro_Americas.all.mb58.gz 175.30MB Kongsberg multibeam vendor format
0014_20150629_073751_Fugro_Americas.all.mb58.gz 33.67MB Kongsberg multibeam vendor format
0015_20150629_080750_Fugro_Americas.all.mb58.gz 12.62MB Kongsberg multibeam vendor format
0016_20150628_023739_Fugro_Americas.all.mb58.gz 115.27MB Kongsberg multibeam vendor format
0017_20150628_030740_Fugro_Americas.all.mb58.gz 94.44MB Kongsberg multibeam vendor format
0018_20150628_033740_Fugro_Americas.all.mb58.gz 82.04MB Kongsberg multibeam vendor format
0019_20150628_040740_Fugro_Americas.all.mb58.gz 79.34MB Kongsberg multibeam vendor format
0020_20150628_043741_Fugro_Americas.all.mb58.gz 77.17MB Kongsberg multibeam vendor format
0021_20150628_050742_Fugro_Americas.all.mb58.gz 69.63MB Kongsberg multibeam vendor format
0022_20150628_053740_Fugro_Americas.all.mb58.gz 68.82MB Kongsberg multibeam vendor format
0023_20150628_060743_Fugro_Americas.all.mb58.gz 68.14MB Kongsberg multibeam vendor format
0024_20150628_063743_Fugro_Americas.all.mb58.gz 47.95MB Kongsberg multibeam vendor format
0025_20150628_070744_Fugro_Americas.all.mb58.gz 46.51MB Kongsberg multibeam vendor format
0026_20150628_073741_Fugro_Americas.all.mb58.gz 46.50MB Kongsberg multibeam vendor format
0027_20150628_080744_Fugro_Americas.all.mb58.gz 45.84MB Kongsberg multibeam vendor format
0028_20150628_083744_Fugro_Americas.all.mb58.gz 45.15MB Kongsberg multibeam vendor format
0029_20150628_090741_Fugro_Americas.all.mb58.gz 45.12MB Kongsberg multibeam vendor format
0030_20150628_093744_Fugro_Americas.all.mb58.gz 44.42MB Kongsberg multibeam vendor format
0031_20150628_100744_Fugro_Americas.all.mb58.gz 41.68MB Kongsberg multibeam vendor format
0032_20150628_103745_Fugro_Americas.all.mb58.gz 39.66MB Kongsberg multibeam vendor format
0033_20150628_110741_Fugro_Americas.all.mb58.gz 40.26MB Kongsberg multibeam vendor format
0034_20150628_113749_Fugro_Americas.all.mb58.gz 37.83MB Kongsberg multibeam vendor format
0035_20150628_120747_Fugro_Americas.all.mb58.gz 37.77MB Kongsberg multibeam vendor format
0036_20150628_123742_Fugro_Americas.all.mb58.gz 40.21MB Kongsberg multibeam vendor format
0037_20150628_130740_Fugro_Americas.all.mb58.gz 41.84MB Kongsberg multibeam vendor format
0038_20150628_133743_Fugro_Americas.all.mb58.gz 39.97MB Kongsberg multibeam vendor format
0039_20150628_140746_Fugro_Americas.all.mb58.gz 39.80MB Kongsberg multibeam vendor format
0040_20150628_143742_Fugro_Americas.all.mb58.gz 39.95MB Kongsberg multibeam vendor format
0041_20150628_150746_Fugro_Americas.all.mb58.gz 39.54MB Kongsberg multibeam vendor format
0042_20150628_153743_Fugro_Americas.all.mb58.gz 39.58MB Kongsberg multibeam vendor format
0043_20150628_160742_Fugro_Americas.all.mb58.gz 39.41MB Kongsberg multibeam vendor format
0044_20150628_163743_Fugro_Americas.all.mb58.gz 14.92MB Kongsberg multibeam vendor format
0045_20150628_164904_Fugro_Americas.all.mb58.gz 33.95MB Kongsberg multibeam vendor format
0046_20150628_171902_Fugro_Americas.all.mb58.gz 6.62MB Kongsberg multibeam vendor format
0047_20150628_172452_Fugro_Americas.all.mb58.gz 33.74MB Kongsberg multibeam vendor format
0048_20150628_175442_Fugro_Americas.all.mb58.gz 18.50MB Kongsberg multibeam vendor format

Metadata Files: 1

Files File Size Description
FA150002.xls 23.0KB Provider supplied metadata